Flag for United Kingdom Weather past 2 weeks in Swindon, England, United Kingdom

Now
59 °F

Drizzle. Low clouds.


Feels Like: 59 °F
Forecast: 49 / 70 °F
Wind: 5 mph from Southwest

Location: Brize Norton

Current Time: Sep 1, 2014 at 8:42:55 AM

Latest Report: Sep 1, 2014 at 7:50 AM


Visibility: 1 mi

Pressure: 30.09 "Hg

Humidity: 94%

Dew point: 57 °F

Location of SwindonLocation

Historic Weather in Swindon — Graph

°F

Swindon temperature yesterday

Maximum temperature yesterday: 70 °F (at 5:50 PM)
Minimum temperature yesterday: 50 °F (at 5:50 AM)
Average temperature yesterday: 60 °F

Past Weeks' High & Low Weather Summary

 TemperatureHumidityPressure
High70 °F (Aug 28, 12:50 PM)100% (Aug 24, 5:50 AM)30.12 "Hg (Aug 24, 5:50 AM)
Low43 °F (Aug 21, 4:50 AM)34% (Aug 20, 2:50 PM)29.50 "Hg (Aug 25, 7:50 PM)
Average58 °F76%29.91 "Hg
* Reported Aug 17 6:50 AM — Sep 1 6:50 AM, Swindon, Weather by CustomWeather, © 2014

Note: Actual official high and low records may vary slightly from our data, if they occured in-between our weather recording intervals... More about our weather records

Advertising

Swindon weather history for previous 24 hours

 ConditionsComfort  
Time TempWeatherWind HumidityBarometerVisibility
6:50 AM
Sep 1
57 °FDrizzle. Mostly cloudy.3 mph100%30.09 "Hg5 mi
6:02 AM57 °FMixture of precip. Passing clouds.3 mph100%30.09 "HgN/A
5:50 AM57 °FDrizzle. Low clouds.3 mph94%30.09 "Hg4 mi
4:50 AM57 °FPassing clouds.1 mph88%30.09 "HgN/A
3:50 AM55 °FPassing clouds.1 mph94%30.09 "HgN/A
2:50 AM54 °FPartly cloudy.2 mph94%30.12 "HgN/A
1:50 AM54 °FClear.3 mph94%30.12 "Hg10 mi
12:50 AM55 °FClear.3 mph88%30.12 "Hg10 mi
11:50 PM
Aug 31
55 °FClear.2 mph94%30.12 "Hg10 mi
10:50 PM57 °FClear.3 mph88%30.12 "Hg10 mi
9:50 PM59 °FClear.3 mph82%30.12 "Hg10 mi
8:50 PM61 °FSunny.6 mph77%30.09 "Hg10 mi
7:50 PM64 °FPassing clouds.3 mph64%30.09 "HgN/A
6:50 PM68 °FPassing clouds.6 mph53%30.07 "HgN/A
5:50 PM70 °FPassing clouds.5 mph43%30.07 "HgN/A
4:50 PM68 °FPassing clouds.8 mph46%30.07 "HgN/A
3:50 PM68 °FScattered clouds.8 mph46%30.07 "HgN/A
2:50 PM68 °FScattered clouds.8 mph46%30.09 "HgN/A
1:50 PM66 °FScattered clouds.8 mph52%30.09 "HgN/A
12:50 PM66 °FPartly sunny.9 mph56%30.07 "HgN/A
11:50 AM64 °FScattered clouds.7 mph60%30.07 "HgN/A
10:50 AM63 °FScattered clouds.8 mph64%30.07 "HgN/A
9:50 AM59 °FPartly sunny.3 mph77%30.07 "HgN/A
8:50 AM57 °FPartly sunny.3 mph88%30.07 "HgN/A
Weather by CustomWeather, © 2014

See weather overviewHow to use our weather pages